This is the latest recevied weather packets stored in our database for station/object KM4NDN. If no packets are shown the sender has not sent any weather packets the latest 10 day(s).
| Time | Temp. | Humidity | Pressure | Rain* | Wind** | Luminosity | Snow |
|---|---|---|---|---|---|---|---|
| 1777551398 | 6.67° C | 78% | 1012.3 hPa | 0 mm | - | 45 W/m² | - |
| 1777551094 | 6.67° C | 79% | 1012.4 hPa | 0 mm | - | 68 W/m² | - |
| 1777550791 | 6.67° C | 78% | 1012.1 hPa | 0 mm | - | 39 W/m² | - |
| 1777550488 | 6.67° C | 79% | 1012.3 hPa | 0 mm | - | 51 W/m² | - |
| 1777550183 | 6.67° C | 79% | 1012.2 hPa | 0 mm | - | 38 W/m² | - |
| 1777549880 | 6.67° C | 80% | 1012.3 hPa | 0 mm | - | 27 W/m² | - |
| 1777549576 | 6.67° C | 80% | 1012.1 hPa | 0 mm | - | 18 W/m² | - |
| 1777549272 | 6.67° C | 80% | 1012.1 hPa | 0 mm | - | 11 W/m² | - |
| 1777548970 | 6.67° C | 80% | 1011.9 hPa | 0 mm | - | 6 W/m² | - |
| 1777548666 | 6.67° C | 81% | 1011.8 hPa | 0 mm | - | 5 W/m² | - |
| 1777548363 | 6.67° C | 81% | 1012 hPa | 0 mm | - | 4 W/m² | - |
| 1777548061 | 6.67° C | 81% | 1012.1 hPa | 0 mm | - | 5 W/m² | - |
| 1777547756 | 6.67° C | 82% | 1011.9 hPa | 0 mm | - | 6 W/m² | - |
| 1777547452 | 6.11° C | 83% | 1012 hPa | 0 mm | - | 7 W/m² | - |
| 1777547150 | 6.11° C | 83% | 1012 hPa | 0 mm | - | 9 W/m² | - |
| 1777546847 | 6.11° C | 83% | 1011.9 hPa | 0 mm | - | 9 W/m² | - |
| 1777546544 | 6.11° C | 83% | 1011.7 hPa | 0 mm | - | 9 W/m² | - |
| 1777546241 | 6.11° C | 83% | 1011.8 hPa | 0 mm | - | 8 W/m² | - |
| 1777545938 | 6.11° C | 83% | 1011.7 hPa | 0 mm | - | 7 W/m² | - |
| 1777545634 | 6.11° C | 83% | 1011.5 hPa | 0 mm | - | 6 W/m² | - |
| 1777545331 | 6.11° C | 83% | 1011.6 hPa | 0 mm | - | 3 W/m² | - |
| 1777545028 | 6.11° C | 83% | 1011.5 hPa | 0 mm | - | 2 W/m² | - |
| 1777544725 | 6.11° C | 83% | 1011.5 hPa | 0 mm | - | 1 W/m² | - |
| 1777544420 | 6.11° C | 83% | 1011.5 hPa | 0 mm | - | 0 W/m² | - |
| 1777544117 | 6.11° C | 82% | 1011.3 hPa | 0 mm | - | 0 W/m² | - |
* Rain latest hour (hover to see other rain measurements)
** Current wind speed in m/s (hover to see current wind gust speed)